Simultaneous Nadir Overpasses (SNOs) Predictions

Prediction of SNOs between AQUA and GOES-15 Satellite Orbit:

Table of predicted SNOs for the next 14.0 days since TLE Epoch: 1/18/2025
Index Date Time (AQUA) AQUA Lat,Lon GOES-15 Lat,Lon Distance(km) Time Diff (sec)
1 01/18/2025 10:04:17 0.95, 65.83 0.02, 61.55 487.64 80
2 01/18/2025 22:23:45 0.03, 61.12 -0.03, 61.42 34.25 80
3 01/20/2025 22:04:36 -0.95, 65.81 -0.02, 61.44 496.55 80
4 01/21/2025 10:24:12 -0.09, 61.08 0.02, 61.58 57.08 80
5 01/23/2025 10:05:02 0.91, 65.77 0.00, 61.60 474.20 80
6 01/23/2025 22:24:29 0.09, 61.07 0.00, 61.48 47.08 80
7 01/25/2025 22:05:18 -0.94, 65.76 0.01, 61.52 483.38 80
8 01/26/2025 10:24:53 -0.11, 61.03 -0.01, 61.66 70.97 80
9 01/28/2025 10:05:40 0.87, 65.74 0.00, 61.70 459.34 80
10 01/28/2025 22:25:06 0.14, 61.04 -0.00, 61.58 61.87 80
11 01/30/2025 22:05:52 -0.86, 65.75 -0.01, 61.62 468.62 80
12 01/31/2025 10:25:26 -0.14, 61.01 0.01, 61.77 85.80 80
